| time (UTC) | temp F | wind direction | speed knots | gust knots | rain 1hr in | rain 24hr in | rain mn in | humidity % | barometer mb |
| 20260506204905 | 57 | 34 | 1.7 | 2.6 | 0.00 | 2.48 | 2.48 | 69 | 1013.2 |
| 20260506204405 | 57 | 34 | 1.7 | 2.6 | 0.00 | 2.48 | 2.48 | 69 | 1013.2 |
| 20260506203905 | 57 | 34 | 0.9 | 2.6 | 0.00 | 2.48 | 2.48 | 70 | 1013.2 |
| 20260506201906 | 57 | 34 | 1.7 | 4.3 | 0.00 | 2.73 | 2.48 | 73 | 1013.1 |
| 20260506194405 | 57 | 34 | 2.6 | 4.3 | 0.00 | 2.86 | 2.48 | 76 | 1012.7 |
| 20260506193907 | 57 | 34 | 0.9 | 2.6 | 0.00 | 2.86 | 2.48 | 77 | 1012.6 |
| 20260506191907 | 57 | 34 | 2.6 | 7.0 | 0.00 | 2.86 | 2.48 | 78 | 1012.3 |
| 20260506190912 | 58 | 34 | 3.5 | 6.1 | 0.00 | 2.86 | 2.48 | 79 | 1012.1 |
| 20260506190407 | 58 | 34 | 2.6 | 5.2 | 0.00 | 2.87 | 2.48 | 79 | 1012.1 |
| 20260506184407 | 58 | 34 | 1.7 | 6.1 | 0.00 | 2.90 | 2.48 | 81 | 1011.9 |
| 20260506183907 | 59 | 34 | 2.6 | 7.0 | 0.00 | 2.90 | 2.48 | 82 | 1011.9 |
| 20260506174907 | 63 | 204 | 4.3 | 8.7 | 0.00 | 2.90 | 2.48 | 74 | 1011.4 |
| 20260506174407 | 63 | 190 | 7.0 | 11.3 | 0.00 | 2.90 | 2.48 | 72 | 1011.3 |
| 20260506171907 | 63 | 192 | 6.1 | 10.4 | 0.00 | 2.90 | 2.48 | 72 | 1011.2 |
| 20260506164406 | 64 | 233 | 5.2 | 12.2 | 0.00 | 2.90 | 2.48 | 68 | 1010.9 |
| 20260506163907 | 64 | 225 | 6.1 | 10.4 | 0.00 | 2.90 | 2.48 | 69 | 1010.9 |
| 20260506153407 | 66 | 234 | 9.6 | 17.4 | 0.02 | 2.90 | 2.48 | 72 | 1010.6 |
| 20260506151407 | 66 | 238 | 5.2 | 10.4 | 0.02 | 2.90 | 2.48 | 79 | 1010.7 |
| 20260506150906 | 65 | 225 | 4.3 | 10.4 | 0.02 | 2.90 | 2.48 | 81 | 1010.8 |
| 20260506144907 | 64 | 251 | 1.7 | 2.6 | 0.02 | 2.89 | 2.47 | 81 | 1010.8 |
| 20260506144407 | 64 | 197 | 1.7 | 2.6 | 0.02 | 2.89 | 2.47 | 81 | 1010.9 |
| 20260506141406 | 65 | 228 | 2.6 | 7.0 | 0.02 | 2.87 | 2.46 | 81 | 1010.8 |
| 20260506140907 | 64 | 270 | 5.2 | 8.7 | 0.03 | 2.87 | 2.46 | 80 | 1010.8 |
| 20260506134406 | 62 | 174 | 0.9 | 2.6 | 0.04 | 2.87 | 2.46 | 80 | 1011.2 |
| 20260506133907 | 62 | 301 | 1.7 | 2.6 | 0.03 | 2.87 | 2.45 | 81 | 1011.2 |
| 20260506133407 | 61 | 252 | 0.9 | 7.0 | 0.03 | 2.87 | 2.45 | 80 | 1011.2 |
| 20260506131407 | 62 | 260 | 5.2 | 10.4 | 0.04 | 2.86 | 2.44 | 82 | 1011.4 |
| 20260506124906 | 64 | 248 | 6.1 | 14.8 | 0.02 | 2.83 | 2.42 | 81 | 1011.2 |
| 20260506124406 | 64 | 243 | 7.8 | 12.2 | 0.02 | 2.83 | 2.42 | 82 | 1011.2 |
| 20260506121906 | 66 | 194 | 10.4 | 17.4 | 0.02 | 2.84 | 2.42 | 80 | 1010.7 |
| 20260506121407 | 66 | 208 | 8.7 | 18.2 | 0.00 | 2.83 | 2.40 | 79 | 1010.6 |
| 20260506120906 | 66 | 184 | 7.0 | 14.8 | 0.00 | 2.83 | 2.40 | 79 | 1010.5 |
| 20260506120406 | 66 | 193 | 10.4 | 17.4 | 0.00 | 2.83 | 2.40 | 78 | 1010.5 |
| 20260506114407 | 67 | 195 | 13.0 | 19.1 | 0.00 | 2.85 | 2.40 | 78 | 1010.7 |
| 20260506113906 | 66 | 203 | 11.3 | 20.0 | 0.00 | 2.87 | 2.40 | 79 | 1010.8 |
| 20260506111907 | 66 | 204 | 11.3 | 20.0 | 0.00 | 2.93 | 2.40 | 78 | 1010.8 |
| 20260506110406 | 66 | 201 | 12.2 | 18.2 | 0.00 | 2.97 | 2.40 | 80 | 1010.7 |
| 20260506104906 | 65 | 196 | 8.7 | 15.6 | 0.00 | 3.02 | 2.40 | 80 | 1011.0 |
| 20260506104406 | 65 | 216 | 9.6 | 14.8 | 0.00 | 3.05 | 2.40 | 81 | 1011.1 |
| 20260506103906 | 64 | 209 | 8.7 | 15.6 | 0.00 | 3.06 | 2.40 | 82 | 1011.2 |
| 20260506100406 | 62 | 203 | 3.5 | 10.4 | 0.00 | 3.25 | 2.40 | 82 | 1011.3 |
| 20260506094906 | 62 | 217 | 5.2 | 7.8 | 0.00 | 3.31 | 2.40 | 81 | 1011.5 |
| 20260506093406 | 62 | 201 | 7.8 | 13.0 | 0.00 | 3.35 | 2.40 | 81 | 1011.4 |
| 20260506091406 | 61 | 216 | 2.6 | 7.8 | 0.00 | 3.39 | 2.40 | 62 | 1011.2 |
| 20260506084906 | 60 | 223 | 3.5 | 6.1 | 0.01 | 3.61 | 2.40 | 37 | 1011.4 |
| 20260506084406 | 60 | 200 | 4.3 | 7.0 | 0.01 | 3.63 | 2.40 | 34 | 1011.4 |
| 20260506083906 | 59 | 177 | 3.5 | 7.0 | 0.01 | 3.66 | 2.40 | 34 | 1011.3 |
| 20260506081906 | 59 | 211 | 4.3 | 7.8 | 0.01 | 3.68 | 2.40 | 36 | 1011.5 |
| 20260506080906 | 59 | 231 | 4.3 | 8.7 | 0.01 | 3.69 | 2.40 | 37 | 1011.5 |
| 20260506080406 | 58 | 192 | 5.2 | 13.0 | 0.01 | 3.74 | 2.40 | 37 | 1011.4 |
| 20260506073406 | 58 | 56 | 0.0 | 2.6 | 0.20 | 3.95 | 2.39 | 38 | 1011.2 |
| 20260506071406 | 57 | 46 | 0.0 | 1.7 | 0.25 | 3.95 | 2.39 | 39 | 1011.3 |
| 20260506070906 | 57 | 121 | 1.7 | 2.6 | 0.25 | 3.95 | 2.39 | 39 | 1011.2 |
| 20260506070406 | 57 | 156 | 0.9 | 2.6 | 0.27 | 3.96 | 2.39 | 39 | 1011.1 |
| 20260506061906 | 57 | 259 | 4.3 | 7.0 | 0.20 | 3.79 | 2.16 | 40 | 1011.0 |
| 20260506061406 | 57 | 230 | 1.7 | 4.3 | 0.18 | 3.78 | 2.14 | 40 | 1011.0 |
| 20260506060406 | 57 | 207 | 1.7 | 5.2 | 0.17 | 3.77 | 2.13 | 40 | 1011.0 |
| 20260506043906 | 57 | 57 | 4.3 | 7.0 | 0.02 | 4.13 | 1.94 | 43 | 1010.9 |
| 20260506043412 | 56 | 74 | 2.6 | 8.7 | 0.01 | 4.13 | 1.93 | 43 | 1011.0 |
| 20260506041406 | 56 | 86 | 5.2 | 6.1 | 0.12 | 4.15 | 1.93 | 44 | 1011.4 |
| 20260506040406 | 56 | 77 | 4.3 | 7.0 | 0.17 | 4.15 | 1.93 | 44 | 1011.7 |
| 20260506034906 | 56 | 77 | 0.0 | 0.9 | 0.30 | 4.15 | 1.93 | 44 | 1012.0 |
| 20260506034406 | 56 | 77 | 0.9 | 0.9 | 0.31 | 4.15 | 1.93 | 44 | 1011.9 |
| 20260506031906 | 56 | 125 | 6.1 | 10.4 | 0.24 | 4.07 | 1.84 | 44 | 1011.8 |
| 20260506030906 | 56 | 38 | 1.7 | 4.3 | 0.20 | 4.02 | 1.79 | 44 | 1012.0 |
| 20260506024406 | 56 | 243 | 0.0 | 0.0 | 0.21 | 3.85 | 1.61 | 45 | 1011.6 |
| 20260506023905 | 56 | 243 | 0.0 | 0.0 | 0.25 | 3.84 | 1.60 | 45 | 1011.7 |
| 20260506023406 | 56 | 243 | 0.0 | 2.6 | 0.27 | 3.84 | 1.60 | 45 | 1011.6 |
| 20260506021906 | 56 | 20 | 0.0 | 2.6 | 0.33 | 3.86 | 1.60 | 45 | 1011.6 |
| 20260506021406 | 56 | 23 | 2.6 | 6.1 | 0.33 | 3.87 | 1.60 | 45 | 1011.5 |
| 20260506020406 | 56 | 28 | 5.2 | 10.4 | 0.32 | 3.87 | 1.58 | 45 | 1011.5 |
| 20260506013407 | 56 | 56 | 2.6 | 5.2 | 0.12 | 3.65 | 1.33 | 46 | 1011.9 |
| 20260506011905 | 56 | 57 | 2.6 | 4.3 | 0.10 | 3.60 | 1.27 | 46 | 1012.0 |
| 20260506011406 | 56 | 57 | 2.6 | 5.2 | 0.13 | 3.60 | 1.27 | 46 | 1012.1 |
| 20260506010406 | 56 | 58 | 3.5 | 7.0 | 0.55 | 3.59 | 1.26 | 47 | 1012.2 |
| 20260506004905 | 57 | 53 | 4.3 | 6.1 | 0.94 | 3.58 | 1.25 | 46 | 1012.4 |
| 20260506004405 | 57 | 53 | 0.9 | 1.7 | 1.06 | 3.57 | 1.24 | 47 | 1012.8 |
| 20260506003905 | 57 | 53 | 0.9 | 2.6 | 1.09 | 3.56 | 1.23 | 47 | 1012.8 |
| 20260506003406 | 57 | 53 | 1.7 | 8.7 | 1.09 | 3.54 | 1.21 | 48 | 1012.7 |
| 20260506001906 | 58 | 25 | 1.7 | 10.4 | 1.15 | 3.50 | 1.17 | 51 | 1012.6 |
| 20260506001406 | 58 | 52 | 7.0 | 10.4 | 1.13 | 3.47 | 1.14 | 51 | 1012.6 |
| 20260506000905 | 59 | 76 | 1.7 | 2.6 | 0.97 | 3.30 | 0.97 | 52 | 1013.2 |
| 20260505234409 | 60 | 117 | 1.7 | 4.3 | 0.22 | 2.55 | 0.22 | 73 | 1012.9 |
| 20260505233905 | 60 | 221 | 1.7 | 4.3 | 0.14 | 2.47 | 0.14 | 74 | 1012.9 |
| 20260505233405 | 60 | 35 | 1.7 | 8.7 | 0.13 | 2.46 | 0.13 | 74 | 1012.9 |
| 20260505231906 | 60 | 60 | 4.3 | 8.7 | 0.02 | 2.35 | 0.02 | 75 | 1013.0 |
| 20260505230905 | 60 | 65 | 4.3 | 11.3 | 0.00 | 2.33 | 0.00 | 74 | 1013.0 |
| 20260505230405 | 60 | 113 | 4.3 | 7.0 | 0.00 | 2.33 | 0.00 | 74 | 1013.2 |
| 20260505224905 | 60 | 103 | 2.6 | 4.3 | 0.00 | 2.33 | 0.00 | 75 | 1013.3 |
| 20260505223906 | 60 | 64 | 5.2 | 7.8 | 0.00 | 2.33 | 0.00 | 75 | 1013.3 |
| 20260505221406 | 60 | 144 | 5.2 | 10.4 | 0.00 | 2.33 | 0.00 | 73 | 1013.3 |
| 20260505213405 | 60 | 71 | 7.0 | 12.2 | 0.00 | 2.33 | 2.33 | 52 | 1013.6 |
| 20260505211406 | 60 | 110 | 2.6 | 8.7 | 0.27 | 2.33 | 2.33 | 52 | 1013.8 |
| 20260505210408 | 61 | 233 | 2.6 | 7.0 | 0.35 | 2.33 | 2.33 | 52 | 1013.9 |